Weather History for Port Aransas, TX

Change the Weather History Date:

Thursday, July 18, 2013

  Actual Average (KCRP) Record (KCRP)
Temperature  
Mean Temperature 78 °F 84 °F  
Max Temperature 85 °F 93 °F 99 °F (2009)
Min Temperature 73 °F 75 °F 71 °F (1986)
Degree Days  
Heating Degree Days 0 0  
Month to date heating degree days 0  
Since 1 June heating degree days 0  
Since 1 July heating degree days 0  
Cooling Degree Days 14 19  
Month to date cooling degree days 338  
Year to date cooling degree days 1701  
Since 1 June cooling degree days 860  
Growing Degree Days 28 (Base 50)    
Moisture  
Dew Point 73 °F    
Average Humidity 80    
Maximum Humidity 94    
Minimum Humidity 65    
Precipitation  
Precipitation 0.20 in 0.08 in 6.39 in (1931)
Month to date precipitation 1.97  
Year to date precipitation 15.60  
Snow  
Snow 0.00 in - - ()
Month to date snowfall  
Since 1 June snowfall  
Since 1 July snowfall  
Snow Depth -    
Sea Level Pressure  
Sea Level Pressure 30.06 in    
Wind  
Wind Speed 7 mph (East)    
Max Wind Speed 14 mph    
Max Gust Speed 22 mph    
Visibility 10 miles    
Events Rain , Thunderstorm    
T = Trace of Precipitation, MM = Missing Value Source: NWS Daily Summary

Daily Weather History Graph

Daily Weather History Graph

Search for Another Location

Airport:

Trip Planner

Search our weather history database for the weather conditions in past years. The results will help you decide how hot, cold, wet, or windy it might be!

Date:

Astronomy

Jul. 18, 2013 Rise Set
Actual Time 6:43 AM CDT 8:25 PM CDT
Civil Twilight 6:17 AM CDT 8:51 PM CDT
Nautical Twilight 5:46 AM CDT 9:22 PM CDT
Astronomical Twilight 5:13 AM CDT 9:54 PM CDT
Moon 4:25 PM CDT (7/18) 2:30 AM CDT (7/18)
Length of Visible Light 14h 33m
Length of Day
13h 41m
Waxing Gibbous, 77% of the Moon is Illuminated
Jul 18
Waxing Gibbous
Jul 22
Full
Jul 29
Last Quarter
Aug 6
New
Aug 14
First Quarter

Hourly Weather History & Observations

Time (CDT) Temp. Heat Index Dew Point Humidity Pressure Visibility Wind Dir Wind Speed Gust Speed Precip Events Conditions
12:15 AM 77.5 °F - 75.4 °F 93% 30.09 in 10.0 mi NNE 5.8 mph - N/A   Scattered Clouds
12:35 AM 77.4 °F - 73.8 °F 89% 30.10 in 10.0 mi North 6.9 mph - N/A   Scattered Clouds
12:55 AM 77.2 °F - 75.0 °F 93% 30.10 in 10.0 mi NNE 4.6 mph - N/A   Mostly Cloudy
1:15 AM 77.9 °F - 75.6 °F 92% 30.09 in 10.0 mi ENE 8.1 mph - N/A   Mostly Cloudy
1:35 AM 79.9 °F - 74.7 °F 84% 30.09 in 10.0 mi East 10.4 mph - N/A   Mostly Cloudy
1:55 AM 80.1 °F 85.1 °F 75.2 °F 85% 30.08 in 10.0 mi East 9.2 mph - N/A   Scattered Clouds
2:15 AM 79.7 °F - 73.6 °F 81% 30.09 in 10.0 mi East 10.4 mph - N/A   Scattered Clouds
2:35 AM 78.3 °F - 73.0 °F 84% 30.08 in 10.0 mi NE 8.1 mph - N/A   Scattered Clouds
2:55 AM 78.3 °F - 72.9 °F 83% 30.07 in 10.0 mi East 9.2 mph - N/A   Clear
3:15 AM 78.8 °F - 72.5 °F 81% 30.06 in 10.0 mi East 6.9 mph - N/A   Clear
3:35 AM 79.3 °F - 71.8 °F 78% 30.06 in 10.0 mi East 8.1 mph - N/A   Clear
3:55 AM 79.7 °F - 74.5 °F 84% 30.06 in 10.0 mi East 10.4 mph - N/A   Light Drizzle
4:15 AM 79.9 °F - 74.3 °F 83% 30.06 in 10.0 mi ENE 8.1 mph - N/A   Clear
4:35 AM 79.7 °F - 74.7 °F 84% 30.06 in 10.0 mi NE 4.6 mph - N/A   Clear
4:55 AM 78.8 °F - 75.4 °F 89% 30.06 in 10.0 mi North 4.6 mph - N/A Thunderstorm Thunderstorm
5:15 AM 77.5 °F - 75.7 °F 94% 30.05 in 10.0 mi North 6.9 mph - N/A Thunderstorm Thunderstorm
5:35 AM 74.3 °F - 70.9 °F 89% 30.07 in 5.0 mi NE 8.1 mph 16.1 mph 0.02 in Rain , Thunderstorm Thunderstorms and Rain
5:55 AM 73.8 °F - 70.3 °F 89% 30.06 in 7.0 mi North 4.6 mph - 0.04 in Rain , Thunderstorm Light Thunderstorms and Rain
6:15 AM 74.3 °F - 71.8 °F 92% 30.06 in 10.0 mi Calm Calm - 0.01 in Rain Rain
6:35 AM 74.3 °F - 71.6 °F 91% 30.08 in 7.0 mi East 13.8 mph 21.9 mph 0.03 in Rain , Thunderstorm Light Thunderstorms and Rain
6:55 AM 74.7 °F - 72.5 °F 93% 30.08 in 5.0 mi ENE 10.4 mph - 0.07 in Rain , Thunderstorm Light Thunderstorms and Rain
7:15 AM 74.7 °F - 71.1 °F 88% 30.08 in 10.0 mi East 9.2 mph - N/A Thunderstorm Unknown
7:35 AM 74.7 °F - 71.2 °F 89% 30.09 in 7.0 mi East 5.8 mph - 0.02 in Rain , Thunderstorm Light Thunderstorms and Rain
7:55 AM 74.8 °F - 71.2 °F 88% 30.09 in 7.0 mi ESE 4.6 mph - 0.04 in Rain Light Rain
8:15 AM 75.9 °F - 72.3 °F 89% 30.10 in 7.0 mi SE 6.9 mph - 0.02 in Rain Light Rain
8:35 AM 76.3 °F - 73.4 °F 91% 30.10 in 7.0 mi SE 6.9 mph - 0.04 in Rain Light Rain
8:55 AM 76.1 °F - 71.1 °F 84% 30.10 in 10.0 mi SE 8.1 mph - 0.05 in Rain Rain
9:15 AM 76.3 °F - 70.7 °F 83% 30.10 in 10.0 mi SSE 5.8 mph - N/A   Light Drizzle
9:35 AM 77.5 °F - 72.3 °F 84% 30.10 in 10.0 mi SSE 4.6 mph - N/A   Light Drizzle
9:55 AM 79.3 °F - 72.1 °F 79% 30.10 in 10.0 mi SE 3.5 mph - N/A   Clear
10:15 AM 79.9 °F - 71.1 °F 74% 30.11 in 10.0 mi ESE 3.5 mph - N/A   Clear
10:35 AM 80.6 °F 84.6 °F 71.6 °F 74% 30.11 in 10.0 mi ESE 4.6 mph - N/A   Clear
10:55 AM 81.1 °F 84.9 °F 70.7 °F 70% 30.11 in 10.0 mi East 4.6 mph - N/A   Clear
11:15 AM 82.2 °F 86.6 °F 71.1 °F 69% 30.11 in 10.0 mi East 5.8 mph - N/A   Clear
11:35 AM 83.1 °F 88.1 °F 71.4 °F 68% 30.11 in 10.0 mi ESE 5.8 mph - N/A   Clear
11:55 AM 83.1 °F 88.1 °F 71.4 °F 68% 30.11 in 10.0 mi ENE 6.9 mph - N/A   Clear
12:15 PM 83.7 °F 90.1 °F 73.4 °F 71% 30.09 in 10.0 mi East 8.1 mph - N/A   Clear
12:35 PM 83.7 °F 91.0 °F 74.5 °F 74% 30.10 in 10.0 mi East 12.7 mph - N/A   Scattered Clouds
12:55 PM 83.3 °F 89.0 °F 72.5 °F 70% 30.10 in 10.0 mi ESE 9.2 mph - N/A   Scattered Clouds
1:15 PM 83.3 °F 89.0 °F 72.5 °F 70% 30.10 in 10.0 mi East 8.1 mph - N/A   Clear
1:35 PM 83.5 °F 89.7 °F 73.2 °F 71% 30.08 in 10.0 mi East 6.9 mph - N/A   Clear
1:55 PM 84.9 °F 90.7 °F 71.8 °F 65% 30.06 in 10.0 mi East 6.9 mph - N/A   Clear
2:15 PM 84.9 °F 91.1 °F 72.5 °F 66% 30.06 in 10.0 mi East 5.8 mph - N/A   Clear
2:35 PM 84.7 °F 90.7 °F 72.1 °F 66% 30.05 in 10.0 mi East 5.8 mph - N/A   Clear
2:55 PM 84.2 °F 90.6 °F 72.9 °F 69% 30.05 in 10.0 mi East 8.1 mph - N/A   Clear
3:15 PM 83.5 °F 89.7 °F 73.2 °F 71% 30.04 in 10.0 mi ENE 8.1 mph - N/A   Clear
3:35 PM 83.3 °F 89.6 °F 73.6 °F 72% 30.04 in 10.0 mi East 8.1 mph - N/A   Clear
3:55 PM 83.3 °F 89.9 °F 73.9 °F 73% 30.04 in 10.0 mi East 8.1 mph - N/A   Clear
4:15 PM 83.3 °F 90.5 °F 74.5 °F 75% 30.03 in 10.0 mi East 6.9 mph - N/A   Clear
5:15 PM 83.3 °F 91.1 °F 75.4 °F 77% 30.01 in 10.0 mi East 6.9 mph - N/A   Clear
5:35 PM 83.5 °F 90.9 °F 74.7 °F 75% 30.00 in 10.0 mi East 5.8 mph - N/A   Clear
5:55 PM 84.2 °F 92.3 °F 75.2 °F 74% 29.99 in 10.0 mi ESE 8.1 mph - N/A   Clear
6:15 PM 84.0 °F 91.5 °F 74.7 °F 73% 29.99 in 10.0 mi East 6.9 mph - N/A   Clear
6:35 PM 83.7 °F 90.4 °F 73.9 °F 72% 29.98 in 10.0 mi ESE 6.9 mph - N/A   Clear
6:55 PM 83.7 °F 90.4 °F 73.8 °F 72% 29.97 in 10.0 mi East 6.9 mph - N/A   Clear
7:15 PM 83.8 °F 90.8 °F 73.8 °F 72% 29.97 in 10.0 mi ESE 4.6 mph - N/A   Clear
7:35 PM 82.6 °F 88.6 °F 73.4 °F 74% 29.98 in 10.0 mi East 5.8 mph - N/A   Clear
7:55 PM 82.4 °F 88.4 °F 73.8 °F 75% 29.98 in 10.0 mi East 4.6 mph - N/A   Clear
8:15 PM 81.9 °F 87.7 °F 74.1 °F 77% 29.98 in 10.0 mi East 5.8 mph - N/A   Clear
8:35 PM 81.5 °F 87.2 °F 73.9 °F 78% 29.99 in 10.0 mi East 4.6 mph - N/A   Clear
8:55 PM 81.0 °F 86.3 °F 74.3 °F 80% 29.99 in 10.0 mi East 5.8 mph - N/A   Clear
9:15 PM 81.0 °F 86.7 °F 74.8 °F 82% 29.99 in 10.0 mi East 5.8 mph - N/A   Scattered Clouds
9:35 PM 81.1 °F 86.8 °F 74.5 °F 80% 30.00 in 10.0 mi East 5.8 mph - N/A   Scattered Clouds
9:55 PM 81.1 °F 86.6 °F 73.9 °F 79% 30.00 in 10.0 mi East 6.9 mph - N/A   Clear
10:15 PM 81.1 °F 87.0 °F 74.7 °F 81% 30.01 in 10.0 mi East 4.6 mph - N/A   Scattered Clouds
10:35 PM 81.5 °F 87.6 °F 74.8 °F 80% 30.02 in 10.0 mi East 8.1 mph - N/A   Mostly Cloudy
10:55 PM 81.0 °F 86.5 °F 74.7 °F 81% 30.02 in 10.0 mi ESE 9.2 mph - N/A   Scattered Clouds
11:15 PM 81.1 °F 87.0 °F 74.7 °F 81% 30.03 in 10.0 mi ESE 9.2 mph - N/A   Scattered Clouds
11:35 PM 80.6 °F 85.7 °F 74.3 °F 81% 30.03 in 10.0 mi ESE 10.4 mph 17.3 mph N/A   Mostly Cloudy
11:55 PM 80.8 °F 86.7 °F 75.4 °F 84% 30.04 in 10.0 mi ESE 10.4 mph - N/A   Scattered Clouds